Regional Weather Roundup
Issued by NWS

Home | Current Version | Previous Version | Text Only | Print | Product List | Glossary Off
Versions: 1 2 3 4 5 6 7 8 9 10 11 12 13 14 15 16 17 18 19 20 21 22 23 24 25 26 27 28 29 30 31 32 33 34 35 36 37 38 39 40 41 42 43 44 45 46 47 48 49 50

000
ASUS44 KMEG 311710
RWRTN
TENNESSEE HOURLY STATE WEATHER ROUNDUP
NATIONAL WEATHER SERVICE MEMPHIS TN
1100 AM CST SAT JAN 31 2015

TNZ002-004-019-021-049-052-054-088>092-311800-
WEST TENNESSEE

CITY           SKY/WX    TMP DP  RH WIND       PRES   REMARKS
MEMPHIS INTL   CLOUDY    43  23  45 E5        30.36F
NWS MEMPHIS      N/A     42 N/A N/A MISG        N/A
JACKSON        CLOUDY    42  23  46 S7        30.38F
DYERSBURG      PTSUNNY   43  19  39 SE6       30.40F
UNION CITY     SUNNY     37  25  60 S5        30.38S WCI  34
PARIS          SUNNY     39  21  48 S7        30.38F WCI  34
LEXINGTON      SUNNY     39  23  52 CALM      30.37F
SAVANNAH       SUNNY     41  25  52 SE3       30.38F
$$

TNZ008-025-027-028-033-062-065-066-311800-
NORTH MIDDLE TENNESSEE

CITY           SKY/WX    TMP DP  RH WIND       PRES   REMARKS
NASHVILLE      PTSUNNY   42  22  44 SE3       30.41F
CLARKSVILLE    PTSUNNY   41  22  46 SE5       30.39F
SMYRNA         PTSUNNY   39  22  51 SE3       30.42F
COOKEVILLE     SUNNY     39  25  56 W6        30.37S WCI  35
CROSSVILLE     MOSUNNY   39  15  37 NE5       30.34F
$$

TNZ061-075-076-078-094-096-097-311800-
SOUTH MIDDLE TENNESSEE

CITY           SKY/WX    TMP DP  RH WIND       PRES   REMARKS
FAYETTEVILLE   SUNNY     37  21  52 MISG      30.37F
TULLAHOMA      SUNNY     37  19  48 CALM      30.38F
WINCHESTER     SUNNY     39  21  48 CALM      30.38F
MCMINNVILLE    SUNNY     37  25  60 CALM      30.38S
COLUMBIA       SUNNY     39  34  81 CALM      30.37F
SHELBYVILLE    SUNNY     39  27  60 CALM      30.39F
$$

TNZ017-018-042-046-047-311800-
NORTHEAST TENNESSEE

CITY           SKY/WX    TMP DP  RH WIND       PRES   REMARKS
TRI CITIES     PTSUNNY   36  13  38 CALM      30.37F
ELIZABETHTON   SUNNY     36   7  30 VRB3      30.36F
$$

TNZ012-013-036-069-073-074-311800-
CENTRAL EAST TENNESSEE

CITY           SKY/WX    TMP DP  RH WIND       PRES   REMARKS
KNOXVILLE      CLOUDY    38  20  48 NE8       30.40S WCI  32
OAK RIDGE      PTSUNNY   37  19  48 NE5       30.41F WCI  33
GATLINBURG     SUNNY     36  18  48 CALM      30.40S
MORRISTOWN     SUNNY     36  16  44 NE3       30.39S
$$

TNZ083-085-099-311800-
SOUTHEAST TENNESSEE

CITY           SKY/WX    TMP DP  RH WIND       PRES   REMARKS
CHATTANOOGA    PTSUNNY   42  17  36 N6        30.41F
$$

SKY/WX REPORTED AS FAIR MEANS FEW OR NO CLOUDS BELOW
12 THOUSAND FEET.




USA.gov is the U.S. government's official web portal to all federal, state and local government web resources and services.